Preview of NWS' New Version of Forecast
This preview is not operational and should not be used for support decisions.

Regional Weather Roundup (RWR)

Issued by National Weather Service (NWS)

                            
000
ASUS42 KTBW 211018
RWRFL 
FLORIDA REGIONAL WEATHER ROUNDUP
NATIONAL WEATHER SERVICE TAMPA BAY RUSKIN FL
600 AM EDT WED AUG 21 2019

NOTE: "FAIR" INDICATES FEW OR NO CLOUDS BELOW 12,000 FEET WITH NO
SIGNIFICANT WEATHER AND/OR OBSTRUCTIONS TO VISIBILITY.

FLZ001>010-012>015-112-114-115-211100-
PANHANDLE FLORIDA
  
CITY           SKY/WX    TMP DP  RH WIND       PRES   REMARKS
PENSACOLA      FAIR      76  76 100 E5        30.03F                  
PENSACOLA NAS  FAIR      75  75 100 NE3       30.03S                  
MILTON NAS     FAIR      72  72 100 CALM      30.05S                  
CRESTVIEW      CLOUDY    74  72  93 CALM      30.06F FOG              
DUKE FIELD     FAIR      74  74 100 CALM      30.05S                  
VALPARAISO     FAIR      76  75  97 NE5       30.04S                  
MARY ESTHER    PTCLDY    74  72  93 CALM      30.03S                  
TRI COUNTY     FAIR      73  72  96 CALM      30.07S                  
PANAMA CITY    FAIR      76  74  93 NE3       30.04S                  
TYNDALL AFB    FAIR      78  76  94 CALM      30.04S                  
APALACHICOLA   FAIR      77  74  90 NE5       30.06R                  

STATION/POSITION SKY/WX   TEMP    WIND        PRES    WAVE   SWELL
                          AIR SEA DIR/SP/G            HT/PER HT/PER
                          (F)     (DEG/KT/KT) (MB)    (FT/S) (FT/S)
30.1N   87.6W              82 84   80/  4/  4 1017.1R   1/ 8   2/ 8
29.2N   88.2W              82 85  120/  4/  6 1016.8F   2/ 7   2/ 7
28.8N   86.0W                 85  100/  6/  8 1016.8F   2/ 6   2/ 6
PANAMA CITY BEAC           79 85   60/  5/  7 1017.7S
TOWER C                    82      CALM  /  1 1017.3F
28.5N   84.5W              83      80/  6/  6 1017.8R   1/ 5   2/ 5

$$
FLZ011-016>038-118-127-128-134-139-239-211100-
NORTH FLORIDA
  
CITY           SKY/WX    TMP DP  RH WIND       PRES   REMARKS
MARIANNA       FAIR      74  74 100 N3        30.06R                  
TALLAHASSEE    MOCLDY    77  75  93 SE3       30.06S                  
PERRY          FAIR      74  73  97 CALM      30.08S                  
LIVE OAK       CLEAR     73  73 100 CALM      30.08S                  
CROSS CITY     FAIR      75  74  97 NE3       30.07R                  
LAKE CITY      FAIR      72  70  94 CALM      30.09S                  
GAINESVILLE    FAIR      71  70  96 CALM      30.10S                  
MAYPORT NAS    FAIR      77  75  93 CALM      30.08S                  
JACKSONVILLE   MOCLDY    74  73  97 CALM      30.08R                  
JAX NAS        FAIR      78  74  87 W3        30.09R                  
JAX CECIL      FAIR      73  72  94 CALM      30.09R                  
FERNANDINA BEA FAIR      75  74  99 MISG      30.09R FOG              
ST AUGUSTINE   FAIR      75  74  96 CALM      30.10R                  
PALM COAST     CLEAR     73  72  94 CALM      30.09S                  

STATION/POSITION SKY/WX   TEMP    WIND        PRES    WAVE   SWELL
                          AIR SEA DIR/SP/G            HT/PER HT/PER
                          (F)     (DEG/KT/KT) (MB)    (FT/S) (FT/S)
SHELL POINT      NOT AVBL
KEATON BEACH               75      50/  5/  6 1018.0F
CEDAR KEY                  80     140/ 10/ 11 1018.1R
FERNANDINA                 81 83              1019.4R
30.7N   81.3W                 82                N/A     2/11
MAYPORT                    78 83   CALM  /  1 1019.1S
31.4N   80.9W              81 82  240/  6/  8 1018.9R   2/11   2/11
ST AUGUSTINE               79 81  180/  3/  3 1018.9R

$$
FLZ040-043>046-052-053-057-058-063-144-211100-
INTERIOR CENTRAL FLORIDA
  
CITY           SKY/WX    TMP DP  RH WIND       PRES   REMARKS
OCALA          FAIR      74  74 100 CALM      30.08S                  
LEESBURG       FAIR      76  74  93 N3        30.09R                  
SANFORD        FAIR      77  75  93 CALM      30.08R                  
ORLANDO EXEC   FAIR      78  76  93 NE3       30.08R                  
ORLANDO INTL   FAIR      77  75  93 N5        30.08S                  
KISSIMMEE      FAIR      78  76  93 NE3       30.09R                  
WINTER HAVEN   FAIR      79  74  84 E3        30.09R                  
LAKELAND       CLEAR     75  73  94 CALM      30.08                   
SEBRING        FAIR      75  73  96 N3        30.07S                  
OKEECHOBEE     FAIR      73  72  94 E3        30.06S                  

$$
FLZ041-047-054-059-064-141-147-211100-
EAST CENTRAL FLORIDA
  
CITY           SKY/WX    TMP DP  RH WIND       PRES   REMARKS
DAYTONA BEACH  FAIR      76  76 100 CALM      30.08S                  
DELAND         FAIR      73  72  94 CALM      30.08S                  
JFK SPACE CTR  FAIR     N/A N/A N/A CALM        N/A                   
CAPE CANAVERAL FAIR      76  76 100 CALM      30.07R                  
PATRICK AFB    FAIR      80  79  99 CALM      30.07R                  
MELBOURNE      FAIR      78  74  87 CALM      30.07R                  
VERO BEACH     FAIR      73  72  96 CALM      30.07R                  
FT PIERCE      FAIR      74  71  91 CALM      30.06S                  

STATION/POSITION SKY/WX   TEMP    WIND        PRES    WAVE   SWELL
                          AIR SEA DIR/SP/G            HT/PER HT/PER
                          (F)     (DEG/KT/KT) (MB)    (FT/S) (FT/S)
28.5N   80.2W              83 84  140/  6/  8 1018.5R   2/11   2/11
28.9N   78.5W              84 86  140/ 10/ 12 1019.4R   2/10   2/10
TRIDENT PIER               79 82  120/  4/  4 1020.0R
28.4N   80.5W                 82                N/A     2/ 3
27.5N   80.2W                 83                N/A     2/12

$$
FLZ050-056-061-142-242-148-248-149-249-151-251-155-255-
160-260-211100-
WEST CENTRAL FLORIDA
  
CITY           SKY/WX    TMP DP  RH WIND       PRES   REMARKS
CRYSTAL RIVER  FAIR      75  73  94 CALM      30.07F                  
INVERNESS      FAIR      73  73 100 CALM      30.08S                  
BROOKSVILLE    FAIR      74  72  93 CALM      30.08S                  
CLEARWATER AIR FAIR      79  73  83 CALM      30.06S                  
ST PETE CLEARW FAIR      78  74  87 SE5       30.06S                  
TAMPA INTL     NOT AVBL                                               
PLANT CITY     FAIR      75  75 100 CALM      30.09S                  
MACDILL AFB    FAIR      76  73  93 E5        30.06S                  
PETER O KNIGHT FAIR     N/A N/A N/A E3        30.07S                  
ST PETERSBURG  FAIR      80  74  81 SE8       30.05R                  
SARASOTA       FAIR      76  74  93 E7        30.04R                  
VENICE         FAIR      77  75  94 NE6       30.06R                  

STATION/POSITION SKY/WX   TEMP    WIND        PRES    WAVE   SWELL
                          AIR SEA DIR/SP/G            HT/PER HT/PER
                          (F)     (DEG/KT/KT) (MB)    (FT/S) (FT/S)
27.3N   84.2W                 85                N/A     3/ 5
CLEARWATER BEACH           80 86   80/  2/  5 1018.1F
MIDDLE TAMPA BAY           78     120/  7/  8 1018.1R
VENICE                     76 85   70/  3/  5 1017.6R

$$
FLZ066-069-070-075>078-162-262-165-265-211100-
SOUTHWEST FLORIDA AND KEYS
  
CITY           SKY/WX    TMP DP  RH WIND       PRES   REMARKS
PUNTA GORDA    FAIR      75  75 100 NE3       30.07R                  
FT MYERS       FAIR      76  74  93 E3        30.04R                  
SOUTHWEST INTL FAIR      76  74  93 E6        30.05R                  
NAPLES         FAIR      78  75  90 E5        30.03S                  
IMMOKALEE      FAIR      73  73 100 E3        30.03S                  
MARATHON       FAIR      83  75  77 SE6       30.03R                  
KEY WEST NAS   CLOUDY    83  74  74 E8        30.02R                  
KEY WEST INTL  FAIR      83  75  77 SE8       30.02S                  

STATION/POSITION SKY/WX   TEMP    WIND        PRES    WAVE   SWELL
                          AIR SEA DIR/SP/G            HT/PER HT/PER
                          (F)     (DEG/KT/KT) (MB)    (FT/S) (FT/S)
NAPLES                     78 86              1017.0R
26.0N   85.6W              84 85  110/  8/ 10 1016.5R   2/ 8   2/ 8
DRY TORTUGAS               83     140/ 12/ 14 1016.5S
SAND KEY                   83     140/ 12/ 14 1015.5
SOMBRERO KEY               83     120/  9/ 11 1017.0
LONG KEY                   83                 1015.9

$$
FLZ067-068-071>074-168-172>174-211100-
SOUTHEAST FLORIDA 
  
CITY           SKY/WX    TMP DP  RH WIND       PRES   REMARKS
W PALM BEACH   FAIR      81  71  71 CALM      30.05S                  
FT LAUDER-EXEC FAIR      77  72  84 CALM      30.04F                  
FT LAUDERDALE  FAIR      80  70  71 CALM      30.03F                  
POMPANO BEACH  FAIR      82  70  66 CALM      30.04F                  
OPA LOCKA      FAIR      78  72  81 CALM      30.04F                  
MIAMI          FAIR      81  70  69 CALM      30.04S                  
WEST KENDALL   FAIR      77  73  87 NE3       30.04S                  
HOMESTEAD      FAIR      79  74  85 CALM      30.03S                  

STATION/POSITION SKY/WX   TEMP    WIND        PRES    WAVE   SWELL
                          AIR SEA DIR/SP/G            HT/PER HT/PER
                          (F)     (DEG/KT/KT) (MB)    (FT/S) (FT/S)
PORT EVERGLADES            83     130/  4/  6 1017.2F
VIRGINIA KEY               83 88   90/  6/  7 1016.8S
LAKE WORTH                        120/  8/  9   N/A
FOWEY ROCKS                83 86  120/ 10/ 11 1017.3F
SETTLEMENT POINT           82     120/  3/  4 1017.9R

$$